DW8790 Maspalomas ES current weather conditions

sailwx.info

Wind from 109 at 0 knots gusting 2

Air temperature 22.8° C
Dewpoint 16.6° C

Last reported at 2014-Jul-25 22:50 UTC.
Time now 2014-Jul-25 23:08 UTC

Location: N 27°46' W 015°34'.
View on Google Maps.

See reports from other nearby stations

  
Tides and Currents Weather Stations Pressure Air Temp Water Temp Dewpoint Dewpoint Depression Visibility Wind Speed Wind Dir Waves Ship Positions
date/time (UTC)wind fromknots sea level pressurealtimeterstation pressurevisibilityair tempwater tempwave heightnotes
2014-Jul-25 22:50 109 0 gusting 2 22.8
2014-Jul-25 22:40 109 0 gusting 4 22.8
2014-Jul-25 22:30 105 0 gusting 6 22.8
2014-Jul-25 22:20 137 2 gusting 4 22.8
2014-Jul-25 22:10 219 1 gusting 6 22.8
2014-Jul-25 22:00 250 3 gusting 6 22.8
2014-Jul-25 21:50 231 2 gusting 4 22.8
2014-Jul-25 21:40 228 2 gusting 5 22.8
2014-Jul-25 21:30 247 3 gusting 4 22.8
2014-Jul-25 21:20 255 2 gusting 6 22.8
2014-Jul-25 21:10 263 3 gusting 6 22.8
2014-Jul-25 21:00 289 2 gusting 6 22.8
2014-Jul-25 20:50 211 1 gusting 5 22.8
2014-Jul-25 20:40 255 1 gusting 5 22.8
2014-Jul-25 20:30 257 4 gusting 5 22.8
2014-Jul-25 20:20 253 4 gusting 6 22.8
2014-Jul-25 20:10 254 3 gusting 6 23.3
2014-Jul-25 20:00 275 1 gusting 6 23.3
2014-Jul-25 19:50 264 3 gusting 8 23.3
2014-Jul-25 19:40 240 5 gusting 8 23.3
2014-Jul-25 19:30 262 5 gusting 8 23.3
2014-Jul-25 19:20 284 5 gusting 10 23.3
2014-Jul-25 19:10 252 6 gusting 8 23.9
2014-Jul-25 19:00 247 4 gusting 8 23.9
2014-Jul-25 18:50 265 5 gusting 10 23.9
2014-Jul-25 18:40 261 5 gusting 8 24.4
2014-Jul-25 18:30 254 5 gusting 8 25.0
2014-Jul-25 18:20 229 4 gusting 8 25.0
2014-Jul-25 18:10 201 6 gusting 12 25.6
2014-Jul-25 18:00 147 4 gusting 6 25.6
2014-Jul-25 17:50 196 4 gusting 10 25.6
2014-Jul-25 17:40 227 4 gusting 6 25.0
2014-Jul-25 17:30 146 4 gusting 6 25.0
2014-Jul-25 17:20 167 1 gusting 7 25.0
2014-Jul-25 17:10 123 6 gusting 13 25.0
2014-Jul-25 17:00 133 4 gusting 7 25.6
2014-Jul-25 16:50 130 6 gusting 12 26.1
2014-Jul-25 16:40 123 7 gusting 12 25.6
2014-Jul-25 16:30 147 6 gusting 13 26.1
2014-Jul-25 16:20 101 7 gusting 13 26.1
2014-Jul-25 16:10 104 7 gusting 13 25.6
2014-Jul-25 16:00 129 12 gusting 15 26.7
2014-Jul-25 15:50 116 7 gusting 14 26.1
2014-Jul-25 15:40 118 9 gusting 18 26.1
2014-Jul-25 15:30 103 8 gusting 15 26.7
2014-Jul-25 15:20 076 7 gusting 13 26.1
2014-Jul-25 15:10 115 7 gusting 13 26.1
2014-Jul-25 15:00 113 6 gusting 10 25.0
2014-Jul-25 14:50 117 10 gusting 19 25.6
2014-Jul-25 14:40 126 8 gusting 17 25.6
2014-Jul-25 14:30 275 10 gusting 18 26.1
2014-Jul-25 14:20 114 8 gusting 19 26.7
2014-Jul-25 14:10 076 1 gusting 20 26.7
2014-Jul-25 14:00 083 7 gusting 18 26.1
2014-Jul-25 13:50 119 10 gusting 21 26.1
2014-Jul-25 13:40 145 9 gusting 19 26.7
2014-Jul-25 13:30 123 10 gusting 15 26.7
2014-Jul-25 13:20 111 2 gusting 18 26.7
2014-Jul-25 13:10 132 8 gusting 13 26.7
2014-Jul-25 13:00 172 2 gusting 7 26.1
2014-Jul-25 12:50 206 5 gusting 12 26.7
2014-Jul-25 12:40 126 4 gusting 10 26.7
2014-Jul-25 12:30 094 7 gusting 10 26.7
2014-Jul-25 12:20 160 6 gusting 10 26.7
2014-Jul-25 12:10 135 3 gusting 10 26.7
2014-Jul-25 12:00 145 4 gusting 10 26.7
2014-Jul-25 11:50 169 5 gusting 10 26.7
2014-Jul-25 11:40 148 4 gusting 8 26.1
2014-Jul-25 11:30 217 4 gusting 10 26.1
2014-Jul-25 11:20 259 4 gusting 10 26.1
2014-Jul-25 11:10 212 4 gusting 8 26.1
2014-Jul-25 11:00 190 5 gusting 7 26.1
2014-Jul-25 10:50 154 5 gusting 8 26.1
2014-Jul-25 10:40 161 5 gusting 10 26.1
2014-Jul-25 10:30 216 5 gusting 8 26.1
2014-Jul-25 10:20 136 5 gusting 10 25.6
2014-Jul-25 10:10 213 4 gusting 8 25.0
2014-Jul-25 10:00 159 4 gusting 6 25.0
2014-Jul-25 09:50 177 2 gusting 8 24.4
2014-Jul-25 09:40 116 6 gusting 10 24.4
2014-Jul-25 09:30 129 6 gusting 8 24.4
2014-Jul-25 09:20 119 4 gusting 6 24.4
2014-Jul-25 09:10 204 0 gusting 5 25.0
2014-Jul-25 09:00 202 1 gusting 6 24.4
2014-Jul-25 08:50 220 0 gusting 4 24.4
2014-Jul-25 08:40 284 0 gusting 6 24.4
2014-Jul-25 08:30 257 0 gusting 4 23.9
2014-Jul-25 08:20 263 1 gusting 5 23.9
2014-Jul-25 08:10 269 1 gusting 5 23.9
2014-Jul-25 08:00 304 23.9
2014-Jul-25 07:50 304 23.3
2014-Jul-25 07:40 324 2 gusting 4 22.8
2014-Jul-25 07:30 320 2 gusting 5 22.2
2014-Jul-25 07:20 309 2 gusting 5 21.7
2014-Jul-25 07:10 327 2 gusting 5 21.1
2014-Jul-25 07:00 346 2 gusting 6 21.1
2014-Jul-25 06:50 338 2 gusting 6 20.6
2014-Jul-25 06:40 321 2 gusting 6 20.6
2014-Jul-25 06:30 334 3 gusting 6 20.6
2014-Jul-25 06:20 343 4 gusting 6 20.0
2014-Jul-25 06:10 307 5 gusting 7 20.0
2014-Jul-25 06:00 337 4 gusting 6 20.0
2014-Jul-25 05:50 341 1 gusting 4 20.0
2014-Jul-25 05:40 342 1 gusting 4 20.0
2014-Jul-25 05:30 314 20.0
2014-Jul-25 05:20 314 20.0
2014-Jul-25 05:10 314 20.0
2014-Jul-25 05:00 314 20.0
2014-Jul-25 04:50 314 20.0
2014-Jul-25 04:40 314 20.0
2014-Jul-25 04:30 309 1 gusting 5 20.0
2014-Jul-25 04:20 284 2 gusting 5 20.0
2014-Jul-25 04:10 305 2 gusting 5 20.0
2014-Jul-25 04:00 306 4 gusting 6 20.0
2014-Jul-25 03:50 287 2 gusting 5 20.6
2014-Jul-25 03:40 280 4 gusting 6 20.0
2014-Jul-25 03:30 288 4 gusting 6 20.0
2014-Jul-25 03:20 307 2 gusting 4 20.0
2014-Jul-25 03:10 307 1 gusting 2 20.0
2014-Jul-25 03:00 307 0 gusting 2 20.0
2014-Jul-25 02:50 307 1 gusting 2 20.0
2014-Jul-25 02:40 307 1 gusting 4 20.0
2014-Jul-25 02:30 315 1 gusting 2 20.0
2014-Jul-25 02:20 305 1 gusting 2 20.0
2014-Jul-25 02:10 315 1 gusting 2 20.0
2014-Jul-25 02:00 315 1 gusting 2 20.6
2014-Jul-25 01:50 315 1 gusting 2 20.6
2014-Jul-25 01:40 315 20.6
2014-Jul-25 01:30 315 0 gusting 2 20.6
2014-Jul-25 01:20 315 0 gusting 2 20.6
2014-Jul-25 01:10 267 1 gusting 5 21.1
2014-Jul-25 01:00 271 1 gusting 4 21.1
2014-Jul-25 00:50 268 1 gusting 4 21.1
2014-Jul-25 00:40 285 1 gusting 4 21.1
2014-Jul-25 00:30 300 2 gusting 2 21.1
2014-Jul-25 00:20 277 0 gusting 2 21.7
2014-Jul-25 00:10 277 0 gusting 4 21.7
2014-Jul-25 00:00 275 1 gusting 4 21.7
2014-Jul-24 23:50 266 3 gusting 5 21.7
2014-Jul-24 23:40 281 4 gusting 5 21.7
2014-Jul-24 23:30 234 2 gusting 4 21.7
2014-Jul-24 23:20 279 1 gusting 2 21.7
2014-Jul-24 23:10 304 2 gusting 2 21.7
2014-Jul-24 23:00 281 0 gusting 4 21.7
2014-Jul-24 22:50 289 2 gusting 5 21.7
2014-Jul-24 22:40 281 3 gusting 7 21.7
2014-Jul-24 22:30 284 3 gusting 7 22.2
2014-Jul-24 22:20 277 3 gusting 6 22.2
2014-Jul-24 22:10 277 2 gusting 6 22.2
2014-Jul-24 22:00 275 4 gusting 6 22.2
2014-Jul-24 21:50 250 3 gusting 6 22.2
2014-Jul-24 21:40 267 3 gusting 5 22.2
2014-Jul-24 21:30 255 2 gusting 5 22.2
2014-Jul-24 21:20 234 2 gusting 4 22.2
2014-Jul-24 21:10 155 22.2
2014-Jul-24 21:00 226 2 gusting 5 22.2
2014-Jul-24 20:50 227 1 gusting 6 22.2
2014-Jul-24 20:40 229 1 gusting 6 22.8
2014-Jul-24 20:30 230 3 gusting 6 22.8
2014-Jul-24 20:20 224 4 gusting 7 22.8
2014-Jul-24 20:10 214 3 gusting 6 23.3
2014-Jul-24 20:00 260 4 gusting 12 23.3
2014-Jul-24 19:50 272 6 gusting 12 23.9
2014-Jul-24 19:40 275 9 gusting 13 23.9
2014-Jul-24 19:30 281 4 gusting 12 24.4
2014-Jul-24 19:20 294 7 gusting 12 25.0
2014-Jul-24 19:10 290 7 gusting 13 26.1
2014-Jul-24 19:00 298 6 gusting 12 26.7
2014-Jul-24 18:50 321 6 gusting 13 26.7
2014-Jul-24 18:40 279 6 gusting 13 27.2
2014-Jul-24 18:20 231 3 gusting 7 27.2
2014-Jul-24 18:10 296 4 gusting 7 27.2
2014-Jul-24 18:00 266 5 gusting 8 27.2
2014-Jul-24 17:50 276 5 gusting 8 26.7
2014-Jul-24 17:40 280 6 gusting 8 27.2
2014-Jul-24 17:30 285 5 gusting 8 27.2
2014-Jul-24 17:20 294 4 gusting 7 27.2
2014-Jul-24 17:10 267 3 gusting 6 26.7
2014-Jul-24 17:00 258 5 gusting 8 26.1
2014-Jul-24 16:50 179 4 gusting 10 26.1
2014-Jul-24 16:40 188 4 gusting 12 26.1
2014-Jul-24 16:30 150 6 gusting 14 25.6
2014-Jul-24 16:20 155 6 gusting 14 25.6
2014-Jul-24 16:10 153 5 gusting 17 25.6
2014-Jul-24 16:00 161 7 gusting 13 26.1
2014-Jul-24 15:50 136 6 gusting 12 27.2
2014-Jul-24 15:40 177 6 gusting 13 27.8
2014-Jul-24 15:30 199 3 gusting 10 27.2
2014-Jul-24 15:20 247 5 gusting 12 26.7
2014-Jul-24 15:10 218 5 gusting 11 26.1
2014-Jul-24 15:00 266 8 gusting 14 26.7
2014-Jul-24 14:50 247 11 gusting 18 26.1
2014-Jul-24 14:40 258 10 gusting 20 26.7
2014-Jul-24 14:30 266 10 gusting 14 27.8
2014-Jul-24 14:20 254 6 gusting 13 27.8
2014-Jul-24 14:10 272 7 gusting 17 27.8
2014-Jul-24 14:00 271 7 gusting 15 27.8
2014-Jul-24 13:50 278 8 gusting 19 27.8
2014-Jul-24 13:40 304 7 gusting 15 27.8
2014-Jul-24 13:30 284 5 gusting 13 28.3
2014-Jul-24 13:20 281 3 gusting 10 27.8
2014-Jul-24 13:10 226 4 gusting 8 27.8
2014-Jul-24 13:00 227 5 gusting 8 27.2
2014-Jul-24 12:50 243 1 gusting 6 26.7
2014-Jul-24 12:40 248 5 gusting 8 26.7
2014-Jul-24 12:30 170 1 gusting 8 26.7
2014-Jul-24 12:20 192 1 gusting 10 26.7
2014-Jul-24 12:10 232 6 gusting 12 26.1
2014-Jul-24 12:00 238 6 gusting 10 26.1
2014-Jul-24 11:50 197 4 gusting 10 26.1
2014-Jul-24 11:40 150 4 gusting 10 26.1
2014-Jul-24 11:30 145 6 gusting 11 26.1
2014-Jul-24 11:20 155 5 gusting 8 26.1
2014-Jul-24 11:10 167 6 gusting 11 26.1
2014-Jul-24 11:00 152 5 gusting 10 26.1
2014-Jul-24 10:50 174 4 gusting 6 26.1
2014-Jul-24 10:40 220 2 gusting 6 25.6
2014-Jul-24 10:30 181 4 gusting 10 25.0
2014-Jul-24 10:20 234 3 gusting 10 25.0
2014-Jul-24 10:10 211 6 gusting 12 25.0
2014-Jul-24 10:00 275 6 gusting 12 25.0
2014-Jul-24 09:50 238 5 gusting 12 25.0
2014-Jul-24 09:40 277 6 gusting 10 24.4
2014-Jul-24 09:30 232 5 gusting 12 24.4
2014-Jul-24 09:20 253 6 gusting 10 24.4
2014-Jul-24 09:10 270 6 gusting 10 24.4
2014-Jul-24 09:00 262 4 gusting 8 24.4
2014-Jul-24 08:50 272 3 gusting 10 24.4
2014-Jul-24 08:40 291 5 gusting 10 24.4
2014-Jul-24 08:30 268 3 gusting 8 23.9
2014-Jul-24 08:20 298 4 gusting 6 23.9
2014-Jul-24 08:10 299 2 gusting 6 23.9
2014-Jul-24 08:00 346 1 gusting 6 23.3
2014-Jul-24 07:50 326 2 gusting 6 22.8
2014-Jul-24 07:40 336 2 gusting 6 22.8
2014-Jul-24 07:30 315 0 gusting 4 22.2
2014-Jul-24 07:20 014 1 gusting 2 21.7
2014-Jul-24 07:10 049 1 gusting 2 21.1
2014-Jul-24 07:00 049 1 gusting 2 20.6
2014-Jul-24 06:50 091 1 gusting 2 20.0
2014-Jul-24 06:40 092 1 gusting 2 20.0
2014-Jul-24 06:30 091 0 gusting 2 20.0
2014-Jul-24 06:20 012 20.0
2014-Jul-24 06:10 012 20.6
2014-Jul-24 06:00 347 2 gusting 4 20.6
2014-Jul-24 05:50 323 3 gusting 6 20.0
2014-Jul-24 04:50 299 2 gusting 5 20.0
2014-Jul-24 04:40 301 3 gusting 6 20.0
2014-Jul-24 04:30 316 3 gusting 6 20.0
2014-Jul-24 04:20 317 4 gusting 6 20.0
2014-Jul-24 04:10 307 2 gusting 5 20.0
2014-Jul-24 04:00 305 1 gusting 2 20.6
2014-Jul-24 03:50 309 1 gusting 2 20.6
2014-Jul-24 03:40 304 1 gusting 2 20.6
2014-Jul-24 03:30 186 20.6
2014-Jul-24 03:20 186 20.6
2014-Jul-24 03:10 186 20.6
2014-Jul-24 03:00 186 20.6
2014-Jul-24 02:50 186 20.6
2014-Jul-24 02:40 186 20.6
2014-Jul-24 02:30 186 0 gusting 2 20.6
2014-Jul-24 02:20 274 20.6
2014-Jul-24 02:10 288 0 gusting 2 20.6
2014-Jul-24 02:00 288 0 gusting 5 21.1
2014-Jul-24 01:50 259 2 gusting 5 21.1
2014-Jul-24 01:40 277 2 gusting 6 21.1
2014-Jul-24 01:30 284 3 gusting 6 21.1
2014-Jul-24 01:20 268 2 gusting 6 21.1
2014-Jul-24 01:10 291 4 gusting 6 21.1
2014-Jul-24 01:00 290 2 gusting 6 21.1
2014-Jul-24 00:50 308 2 gusting 5 21.1
2014-Jul-24 00:40 304 4 gusting 6 21.1
2014-Jul-24 00:30 321 2 gusting 6 21.7
2014-Jul-24 00:20 279 2 gusting 6 21.7
2014-Jul-24 00:10 283 2 gusting 6 21.7
2014-Jul-24 00:00 309 2 gusting 6 21.7
2014-Jul-23 23:50 309 1 gusting 6 21.7
2014-Jul-23 23:40 269 2 gusting 6 21.7
2014-Jul-23 23:30 284 2 gusting 6 21.7
2014-Jul-23 23:20 261 1 gusting 4 21.7
2014-Jul-23 23:10 244 2 gusting 5 21.7
2014-Jul-23 23:00 154 0 gusting 2 21.7